Regional Weather Roundup
Issued by NWS

Home | Current Version | Previous Version | Text Only | Print | Product List | Glossary Off
Versions: 1 2 3 4 5 6 7 8 9 10 11 12 13 14 15 16 17 18 19 20 21 22 23 24 25 26 27 28 29 30 31 32 33 34 35 36 37 38 39 40 41 42 43 44 45 46 47 48 49 50

000
ASUS43 KBIS 251302
RWRND

NORTH DAKOTA REGIONAL WEATHER ROUNDUP
NATIONAL WEATHER SERVICE BISMARCK ND
800 AM CDT TUE JUL 25 2017

NOTE: "FAIR" INDICATES FEW OR NO CLOUDS BELOW 12,000 FEET WITH NO
SIGNIFICANT WEATHER AND/OR OBSTRUCTIONS TO VISIBILITY.


NDZ001>003-009>011-017-251400-
NORTHWEST NORTH DAKOTA

CITY           SKY/WX    TMP DP  RH WIND       PRES   REMARKS
WILLISTON      CLOUDY    65  45  48 N3        29.98S
MINOT          CLOUDY    65  48  54 NW15      29.93R
MINOT AFB      CLOUDY    64  47  53 NW12      29.92R
$$

NDZ018>021-031>035-040>046-251400-
SOUTHWEST NORTH DAKOTA

CITY           SKY/WX    TMP DP  RH WIND       PRES   REMARKS
BISMARCK       CLOUDY    69  66  90 S8        29.95R
DICKINSON      CLOUDY    65  52  62 N8        29.97R
GARRISON         N/A     68  54  60 N5        29.93R
HETTINGER ARPT LGT RAIN  65  57  75 NE17G24   29.94F
$$

NDZ004>008-012>016-024-026-027-054-251400-
NORTHEAST NORTH DAKOTA

CITY           SKY/WX    TMP DP  RH WIND       PRES   REMARKS
GRAND FORKS    CLOUDY    68  66  93 S6        29.87R
GRND FRKS AFB  MOSUNNY   68  66  94 S9        29.87R
DEVILS LAKE    CLOUDY    68  66  93 CALM      29.88S
$$

NDZ022-023-025-028>030-036>039-047>053-251400-
SOUTHEAST NORTH DAKOTA

CITY           SKY/WX    TMP DP  RH WIND       PRES   REMARKS
FARGO          SUNNY     71  65  81 S13       29.88R
JAMESTOWN      PTSUNNY   67  65  93 SE5       29.87F
$$





USA.gov is the U.S. government's official web portal to all federal, state and local government web resources and services.